Theta_e
306 306 306 306 306 306 305 305 305 307 307 307 308 308 307 308 308 308 307 307 307 307 307 307 307 307 307 308 307 307 307 307 307 307 307 307 307 307 307 307 307 307 307 308 308 307 307 306 305 305 305 305 306 306 306 306 305 305 305 304 304 304 304 304 305 305 305 305 306 306 306 307 308 310 312 313 315 318 321 321 322 322 323 323 319 314
306 307 307 307 306 306 306 305 305 307 307 307 307 306 306 306 306 307 307 307 307 307 307 306 306 306 306 306 306 306 307 307 307 307 307 307 307 307 307 306 306 306 306 306 306 306 306 306 306 306 307 307 307 307 306 306 305 305 305 305 305 304 304 304 304 304 304 305 305 305 305 306 306 307 308 309 311 313 317 321 323 323 321 321 319 315
306 305 305 307 306 305 304 304 305 306 306 307 306 306 305 305 305 307 308 308 308 308 307 306 306 306 305 305 305 305 305 306 306 306 307 307 307 307 307 307 307 307 307 306 307 307 307 307 307 307 307 307 306 306 306 306 305 305 305 304 304 304 304 304 304 304 304 304 304 305 305 306 308 310 311 311 311 313 316 319 320 322 320 319 317 315
306 305 304 304 303 301 301 302 304 305 305 306 305 306 305 305 305 306 307 308 307 308 307 306 306 305 305 305 305 304 304 305 305 306 306 307 307 307 307 307 307 306 306 307 307 306 307 307 307 307 306 306 306 306 305 305 306 305 305 305 305 305 305 305 305 305 304 304 304 305 306 307 309 314 317 319 318 317 316 316 316 318 318 317 316 315
305 305 304 303 301 300 300 301 303 304 305 305 305 305 305 306 306 306 306 306 305 306 306 305 305 305 305 305 305 304 304 304 304 305 305 306 306 306 306 306 306 306 305 306 306 305 306 306 306 306 305 305 305 305 305 305 305 304 304 305 305 305 305 305 305 305 305 304 304 304 305 306 307 309 314 319 322 321 318 316 316 317 318 318 317 315
303 303 303 303 301 301 301 302 303 304 304 305 305 305 305 306 306 305 305 304 304 304 305 305 305 307 307 307 306 305 305 305 304 304 304 304 305 305 305 306 306 306 306 306 305 305 305 305 305 305 305 305 304 304 304 303 303 303 303 303 303 303 303 303 304 304 304 304 304 304 304 305 305 306 306 309 314 318 318 317 316 317 317 318 319 317
303 303 303 302 301 301 302 302 303 304 305 304 305 305 306 306 306 305 304 304 304 304 305 304 305 308 307 306 308 308 308 308 306 305 305 304 305 305 305 305 305 306 305 305 305 305 305 304 304 303 303 303 302 302 302 302 302 302 302 302 303 303 303 303 303 303 303 303 303 303 304 304 305 305 305 305 306 309 311 313 315 317 317 317 318 317
303 302 303 301 301 302 303 302 303 304 304 304 304 304 304 304 304 304 304 303 303 304 304 304 304 305 305 304 307 310 310 308 307 306 305 304 305 305 305 304 304 304 304 304 304 303 303 302 302 301 301 301 301 301 301 302 302 302 302 302 303 303 303 303 303 303 303 302 303 303 303 303 304 304 304 305 305 306 307 308 311 314 316 316 316 315
303 303 303 301 300 301 302 302 302 303 303 304 304 304 303 303 303 303 303 303 303 303 304 304 304 304 304 304 306 309 309 308 308 307 305 304 305 305 303 303 303 302 302 302 302 302 301 301 301 301 301 300 300 301 301 301 301 301 302 302 302 302 303 303 303 303 303 303 303 303 302 303 303 304 303 303 304 305 306 307 308 309 311 313 314 314
303 303 302 303 302 301 301 301 302 302 303 304 305 303 303 303 303 302 303 302 302 303 302 303 304 304 304 305 306 307 307 307 307 305 304 304 303 303 302 302 302 301 301 301 301 301 301 301 301 301 300 300 300 300 300 301 301 301 301 302 302 302 302 303 303 303 303 303 303 303 303 303 303 303 303 304 304 304 304 305 306 307 308 310 312 313
301 301 300 302 303 301 299 300 302 303 303 304 304 302 302 302 302 302 302 302 303 303 301 301 303 304 304 305 304 305 305 305 304 304 304 303 302 301 301 301 301 301 300 300 300 300 300 300 300 300 300 299 299 299 299 300 300 301 301 301 301 302 302 302 302 303 303 303 303 303 303 303 303 303 303 303 304 305 305 304 304 305 306 307 309 311
299 299 300 299 300 299 299 300 302 303 303 303 302 302 302 302 302 302 302 302 302 301 301 302 303 303 303 304 303 303 303 303 304 304 304 303 301 300 300 300 300 300 299 299 299 299 299 298 298 298 298 297 297 297 298 298 299 299 300 301 301 301 301 302 302 302 302 303 303 303 303 303 303 303 303 303 303 304 304 305 305 305 306 306 307 308
299 299 299 298 298 299 299 300 302 303 302 302 302 302 302 301 302 302 302 302 301 300 301 304 303 302 302 302 301 302 303 303 303 304 303 301 300 299 299 299 298 298 298 298 297 297 297 296 296 296 296 296 296 296 296 297 297 298 298 299 300 300 301 301 301 302 302 302 302 303 303 303 303 303 303 304 303 303 303 304 304 305 306 306 306 307
299 299 299 299 299 299 299 299 301 302 302 301 301 302 301 300 299 300 301 302 302 301 302 304 304 303 303 302 301 301 301 303 303 303 303 301 299 299 298 297 297 296 296 296 295 295 295 295 294 294 294 294 294 294 295 295 296 296 297 298 298 299 300 300 301 301 301 302 302 302 302 303 303 303 303 304 304 304 303 303 304 304 305 306 306 308
297 297 299 299 300 300 299 299 300 301 301 300 300 301 300 300 298 298 299 301 302 302 302 303 303 303 303 304 303 301 302 303 302 302 301 300 299 298 297 296 296 295 295 295 294 294 294 294 294 293 293 293 293 293 293 294 294 295 295 296 297 297 298 299 300 300 301 301 301 302 302 302 302 303 303 303 303 303 303 303 304 304 304 305 306 307
296 296 299 300 299 299 298 299 299 301 302 301 301 301 300 301 300 299 301 301 301 302 302 303 303 302 303 302 302 302 302 302 301 300 299 298 298 297 296 296 295 295 294 294 294 294 294 294 293 293 293 293 293 293 293 293 293 293 294 294 295 296 296 297 298 299 300 301 301 301 302 302 302 302 303 303 303 303 303 303 304 304 304 304 305 306
297 297 301 299 298 299 299 299 300 301 302 302 301 300 300 301 301 301 301 301 300 300 301 302 302 302 302 302 302 302 302 301 300 299 298 297 297 296 296 295 295 294 294 294 294 293 293 293 293 293 292 292 292 292 292 292 292 292 293 293 294 294 295 296 297 298 298 299 300 301 301 301 302 302 302 302 303 303 303 303 304 303 304 304 304 305
297 296 298 298 297 299 299 299 300 300 300 302 301 301 301 301 301 301 300 300 299 298 298 299 299 299 299 300 301 301 301 301 300 299 298 297 296 296 296 295 295 294 294 293 293 293 293 293 292 292 292 292 292 292 292 292 292 292 292 292 293 293 294 295 295 296 297 298 299 300 301 301 301 301 302 302 302 303 303 303 303 304 304 304 304 304
297 296 297 297 296 298 298 299 300 300 300 300 300 301 301 301 301 300 299 299 299 298 298 298 299 298 298 299 301 300 300 300 299 298 298 296 296 295 295 295 294 294 294 293 293 293 292 292 292 292 291 292 292 292 292 292 291 291 291 292 292 293 293 294 294 295 296 297 298 299 300 300 300 301 301 301 302 302 303 303 303 303 304 304 304 304
296 296 296 295 295 296 297 298 299 299 299 300 300 300 300 301 301 301 300 299 298 297 297 298 299 299 299 299 299 299 299 299 298 297 297 296 295 295 294 294 294 293 293 293 292 292 292 291 291 291 291 291 291 291 292 292 291 291 291 291 292 292 293 293 294 294 295 296 297 298 299 299 300 300 300 301 301 302 302 303 303 303 304 304 304 304
295 296 295 294 295 295 296 297 298 297 298 299 299 299 300 300 301 300 299 299 298 298 297 297 298 298 298 299 299 299 298 298 297 297 296 295 294 294 294 294 293 293 292 292 291 291 291 291 291 291 291 291 291 291 291 292 291 291 291 291 291 292 292 293 293 294 294 295 296 297 298 299 299 300 300 300 300 301 302 302 303 303 304 304 304 304
295 295 295 295 295 295 296 297 297 297 298 299 298 299 299 300 300 299 298 298 299 299 298 298 297 298 299 298 298 298 298 297 297 296 295 294 294 294 294 293 293 292 292 291 291 291 291 291 291 291 291 290 290 291 291 292 291 291 291 291 291 292 293 293 294 294 294 295 295 296 297 298 299 299 300 300 300 300 301 301 302 303 304 304 304 304
295 295 295 294 294 295 295 296 296 296 297 297 297 298 299 299 299 298 297 297 297 298 298 298 298 299 299 298 298 298 297 296 296 295 294 294 294 294 293 293 292 292 291 291 291 291 291 291 291 291 290 290 290 291 291 292 292 291 290 290 291 292 293 294 294 294 294 295 295 296 297 298 298 299 299 300 300 300 300 301 301 302 303 304 304 304
295 294 294 294 294 295 295 295 294 294 295 295 296 297 298 298 298 298 297 297 298 298 298 298 297 298 299 299 298 297 296 295 295 294 294 294 294 294 293 293 292 292 291 291 291 291 291 291 291 290 290 289 290 290 291 291 291 290 290 290 290 292 293 294 294 294 294 295 295 295 296 297 298 298 299 299 300 300 300 300 300 301 302 303 304 304
295 294 293 293 293 293 294 294 293 293 293 294 295 295 296 297 297 297 297 297 297 297 297 297 296 297 297 298 298 296 296 295 295 294 294 294 294 294 293 293 293 292 292 291 291 291 291 291 290 290 289 289 289 289 290 290 290 290 291 291 291 292 293 294 294 294 294 294 295 295 296 296 297 298 298 299 299 300 300 300 300 300 301 302 303 304
294 294 293 292 291 292 292 293 293 293 293 293 293 293 294 295 295 296 296 296 296 296 296 296 296 296 296 296 296 296 296 295 295 295 295 295 295 295 294 294 293 293 292 292 291 291 291 291 291 290 289 289 288 289 289 290 290 291 292 293 293 293 293 294 294 294 294 294 294 295 295 296 296 297 298 298 299 299 300 300 300 300 300 301 302 303
293 293 293 293 292 292 292 293 293 293 293 293 292 292 292 293 293 294 295 295 295 296 296 295 295 296 295 295 295 295 295 295 295 295 295 295 295 295 295 294 293 293 292 292 291 291 291 291 291 291 289 289 288 289 289 289 290 292 292 292 293 293 293 293 294 294 294 294 294 294 295 295 296 296 297 298 298 299 299 300 300 299 299 300 301 302
292 292 292 293 292 293 293 293 293 292 292 293 292 292 292 292 292 293 293 293 294 294 294 294 295 294 294 294 294 294 294 294 294 294 294 294 294 294 294 294 293 292 292 291 291 291 291 291 291 291 289 288 289 289 289 289 290 291 292 292 292 292 292 292 293 293 293 293 294 294 294 294 295 295 296 297 298 298 299 299 299 300 299 299 300 301
291 291 291 292 292 292 292 292 291 291 291 291 291 292 292 292 292 292 292 292 293 292 292 293 293 293 293 293 294 294 293 293 293 293 293 293 293 293 293 293 293 292 292 291 291 291 291 291 291 290 289 288 289 290 289 289 290 291 291 291 291 291 291 291 291 292 292 292 293 293 293 294 294 295 295 296 297 298 298 298 299 299 299 299 299 300
290 289 290 290 290 290 290 290 290 290 290 290 290 290 291 291 291 292 292 292 292 292 292 292 292 291 292 293 293 293 293 292 293 293 293 293 293 293 293 293 292 292 292 291 292 291 291 291 291 290 289 288 289 290 290 289 290 290 290 290 290 290 290 290 290 290 291 291 291 292 292 293 293 294 295 295 296 297 297 298 298 298 299 299 299 299
290 289 290 290 290 290 290 290 290 290 289 289 289 289 289 289 290 290 291 292 292 292 292 292 292 291 292 292 292 292 292 292 292 292 292 293 293 293 293 293 292 292 292 292 292 292 291 291 290 289 289 288 289 291 290 289 290 290 289 289 289 289 289 289 289 290 290 290 290 291 291 292 292 293 294 295 295 296 296 297 297 298 298 299 299 299
289 289 289 290 289 289 290 290 289 289 289 288 288 289 289 289 289 289 290 290 291 291 291 292 292 292 292 293 292 292 292 292 292 292 292 292 292 292 292 292 293 292 292 292 292 292 291 290 290 289 288 288 290 291 290 289 289 289 289 289 289 288 289 289 289 289 289 289 289 290 290 291 291 292 293 294 295 295 296 296 297 297 297 298 298 298
289 289 289 289 288 289 289 288 288 288 288 288 288 289 289 288 288 288 289 289 290 290 290 291 291 292 292 293 292 292 292 292 291 292 292 292 292 293 292 292 293 292 292 293 292 292 291 291 290 289 288 289 291 292 290 289 289 289 288 288 288 288 288 288 288 288 288 289 289 289 289 290 290 291 292 292 293 295 295 296 296 297 297 297 298 298
288 288 289 288 288 288 288 288 288 288 287 288 288 288 288 288 288 288 288 289 289 289 289 290 290 291 292 292 292 291 292 292 292 292 292 292 292 292 292 292 292 293 292 293 292 292 291 291 290 289 289 290 292 291 290 289 289 288 288 288 287 287 287 287 288 288 288 288 288 288 289 289 289 290 291 291 292 293 295 295 296 296 296 297 297 297
287 288 288 288 287 287 288 288 287 286 287 287 287 287 288 288 288 288 288 288 289 289 289 289 289 290 290 290 291 291 291 291 292 292 292 292 292 292 292 292 292 292 292 292 292 291 291 291 290 289 289 290 291 290 289 289 288 288 288 287 287 287 287 287 287 287 287 287 287 288 288 288 289 289 290 290 291 292 293 294 295 295 296 296 297 297
287 287 287 287 287 287 287 287 286 286 287 287 286 287 287 287 287 287 287 288 288 289 288 288 289 289 289 289 290 290 291 291 291 291 291 291 292 292 292 292 292 292 292 292 292 291 291 291 290 289 290 291 291 290 289 289 288 287 287 287 287 287 286 286 287 287 287 287 287 287 287 287 288 289 289 289 290 291 292 293 294 295 295 296 296 297
287 287 287 287 287 287 286 286 286 286 286 286 286 286 287 287 287 287 286 287 288 288 288 288 288 288 288 288 289 289 290 290 290 290 291 291 291 292 292 292 292 292 292 292 291 291 291 290 289 289 291 292 291 290 289 288 288 287 287 287 287 287 286 286 286 286 286 286 286 287 287 287 287 288 288 289 289 290 291 292 293 294 295 295 296 296
287 287 287 286 287 286 286 285 286 285 285 285 285 286 287 286 287 287 287 287 287 287 287 287 287 287 287 287 288 288 289 289 288 289 290 291 291 291 291 291 292 291 291 291 291 291 290 290 289 290 291 292 290 289 288 288 287 287 287 287 287 287 287 286 286 286 286 286 286 286 286 286 286 287 287 288 288 289 289 291 292 294 294 295 295 296
287 287 287 286 286 286 285 285 285 284 285 285 286 286 287 287 287 287 286 286 285 284 285 286 285 285 286 285 286 286 287 288 288 289 290 291 291 291 291 291 291 291 291 291 291 290 290 289 290 291 292 291 290 289 288 287 287 287 286 286 286 286 286 286 286 286 286 286 285 286 286 286 286 286 287 287 288 288 288 290 292 293 294 294 295 295
286 286 286 285 285 286 285 285 285 285 285 285 285 286 286 287 286 285 285 284 283 282 284 284 283 284 284 284 284 285 286 286 287 287 288 290 290 290 291 291 291 291 291 291 290 290 290 289 290 291 291 290 289 288 287 287 286 286 286 286 286 286 286 286 286 286 285 285 285 285 285 285 285 286 286 287 287 287 288 289 291 292 293 294 294 295
285 285 285 285 285 285 284 284 284 284 285 285 286 285 286 286 285 284 284 282 280 280 282 281 281 282 282 281 282 283 284 284 284 285 287 288 289 289 290 290 290 290 290 290 290 289 289 290 291 291 290 289 288 288 287 287 286 286 286 286 286 286 286 286 285 285 285 285 285 285 285 285 285 286 286 286 287 287 288 289 290 291 292 293 294 295
284 284 284 284 284 285 285 284 284 284 284 284 286 286 285 286 285 282 279 278 278 279 279 278 279 279 278 278 280 280 281 283 284 285 286 287 288 288 289 289 290 290 290 289 289 289 289 290 290 290 289 288 288 287 287 286 286 286 286 286 286 286 286 285 285 285 285 285 285 285 285 285 285 285 286 286 287 287 288 288 289 291 292 292 293 294
284 284 283 283 284 284 284 283 283 284 281 279 283 285 283 282 280 276 274 276 277 277 276 275 276 276 275 276 277 277 279 282 284 285 286 286 287 288 289 289 289 289 289 289 289 289 289 289 289 288 288 288 287 287 287 286 286 286 286 286 286 285 285 285 285 285 285 285 285 285 285 285 285 285 286 286 287 287 287 288 289 290 291 292 293 294
284 284 283 284 284 284 283 282 281 280 277 275 279 281 277 274 273 271 272 275 276 274 273 274 274 274 273 274 275 276 278 281 283 285 285 286 287 288 289 289 289 289 289 289 289 289 289 288 288 288 288 287 287 287 287 286 286 286 286 285 285 285 285 285 285 285 284 284 284 285 285 285 285 285 285 286 286 287 287 288 288 289 290 291 292 293
281 280 281 283 282 281 281 279 277 275 273 272 273 273 271 270 269 270 271 273 272 272 271 271 272 271 271 273 274 275 277 279 282 284 285 286 287 289 289 288 288 288 288 287 287 287 287 288 288 288 287 287 287 286 286 286 285 285 285 285 285 285 285 285 284 284 284 284 284 284 284 284 285 285 285 285 286 286 287 287 288 288 289 290 291 292
274 273 277 281 279 278 277 275 274 273 272 271 270 269 268 268 267 268 269 270 270 270 269 269 270 269 270 272 272 274 276 279 281 283 285 286 287 288 287 287 287 286 286 286 285 286 286 287 287 287 287 287 286 286 285 285 285 285 285 285 285 284 284 284 284 284 284 284 284 284 284 284 284 285 285 285 285 285 286 287 287 287 288 289 290 291
271 270 275 279 279 279 277 273 271 271 270 269 269 268 267 267 266 266 267 267 267 267 267 267 268 268 269 271 271 272 275 278 279 281 284 285 285 285 285 285 285 285 284 284 284 284 285 286 287 287 287 286 285 285 285 285 285 285 284 284 284 284 284 284 284 284 284 284 284 284 284 284 284 284 284 285 285 285 285 286 286 287 287 288 289 290
270 270 272 274 275 275 274 270 269 270 268 267 267 267 266 265 265 265 266 266 266 266 266 266 267 267 268 270 270 271 274 276 276 277 279 281 281 282 283 282 283 283 282 282 282 283 284 285 286 286 285 285 285 285 284 284 284 284 284 284 284 284 283 283 283 283 283 284 284 284 284 284 284 284 284 284 285 285 285 285 286 286 287 287 288 289
266 268 267 269 272 273 271 268 268 270 270 267 266 265 265 264 264 264 265 266 266 266 265 265 266 267 267 268 270 271 273 275 275 275 276 277 278 279 280 280 281 281 281 281 282 283 284 284 283 283 284 284 284 284 284 284 284 283 283 283 283 283 283 283 283 283 283 283 283 283 284 284 284 284 284 284 284 285 285 285 285 285 286 286 287 287
264 264 263 268 274 273 269 265 265 267 269 267 265 264 264 264 264 264 265 265 265 265 264 264 265 267 268 268 268 270 272 273 273 272 273 275 276 277 279 279 280 280 280 280 281 282 282 282 282 282 283 283 283 283 283 283 283 283 283 283 283 283 283 283 283 283 283 283 283 283 283 284 284 284 284 284 284 284 285 285 285 285 285 286 286 287
262 261 261 264 268 267 264 262 262 263 264 265 264 264 264 263 263 264 264 264 264 263 262 262 264 266 268 268 268 268 270 271 271 270 271 272 273 275 277 279 279 280 280 281 281 281 281 281 281 282 282 282 282 282 282 282 282 282 282 282 282 282 282 282 282 282 283 283 283 283 283 283 283 283 283 283 284 284 284 285 285 285 285 285 286 286
Wind_Speed
8 4 4 5 6 8 10 12 12 10 9 5 2 3 4 3 5 3 2 3 3 1 5 6 7 7 8 9 8 9 12 10 12 13 13 13 13 14 14 13 14 14 13 11 10 10 10 14 16 17 18 19 20 20 20 20 20 20 20 21 21 21 20 20 21 21 21 22 23 25 27 29 31 32 32 33 33 34 33 33 32 31 30 30 30 31
6 3 6 9 10 9 6 7 8 7 7 4 1 4 5 4 6 6 2 3 4 2 3 5 7 9 9 9 9 11 12 11 11 10 11 14 15 18 19 19 20 19 18 17 16 16 16 18 19 20 20 19 18 17 16 16 16 17 18 19 20 21 21 22 22 23 23 24 23 24 25 27 29 31 33 34 34 35 35 34 33 33 32 33 34 34
4 6 10 9 6 3 2 2 3 3 4 3 3 3 4 4 4 6 5 3 3 2 3 4 7 9 9 10 11 11 12 15 19 18 16 17 18 19 21 20 20 19 19 20 20 19 18 18 18 19 19 17 15 13 14 15 15 16 17 18 19 19 20 21 21 22 23 24 24 25 25 25 25 26 28 31 32 33 33 33 33 33 34 35 36 36
3 4 6 3 2 2 1 3 3 3 3 3 4 3 5 5 3 3 4 1 2 0 2 4 6 7 8 10 11 14 18 19 22 23 21 20 19 18 18 18 18 18 18 19 18 17 15 15 15 16 15 14 13 13 14 14 14 15 16 17 18 18 18 19 20 21 22 24 25 25 25 25 25 25 24 25 28 30 32 34 34 35 36 37 37 37
6 3 2 3 2 1 3 4 5 4 3 5 6 5 5 5 4 2 1 3 4 3 3 4 6 7 8 12 12 13 17 17 19 20 19 20 22 20 18 18 20 22 22 21 16 11 10 11 11 10 10 11 12 14 15 14 14 15 15 16 18 19 19 20 20 21 22 23 25 27 27 28 29 29 28 27 27 28 31 34 36 37 37 38 38 38
9 7 2 4 2 3 4 4 6 5 3 4 7 9 9 7 3 1 3 3 3 4 5 6 4 5 4 9 11 8 7 10 14 15 17 20 22 21 21 21 22 22 18 15 10 7 8 6 5 6 9 11 13 14 15 16 16 17 17 17 18 19 20 21 21 21 22 23 25 26 28 30 31 32 33 33 32 31 32 33 35 36 37 38 39 40
5 3 2 3 3 3 5 5 6 6 4 4 3 4 8 6 3 3 1 0 1 4 2 5 3 4 2 2 7 5 6 8 9 9 13 16 18 19 18 14 13 12 11 10 8 7 5 5 7 7 8 10 11 11 11 12 13 13 14 15 15 16 17 18 19 20 21 22 23 25 27 29 30 32 33 34 34 34 35 35 35 35 37 38 40 41
3 5 2 2 3 4 5 5 6 7 5 3 1 4 2 3 3 4 4 3 3 4 4 1 4 5 4 5 7 7 7 8 8 8 8 10 14 12 8 11 13 12 11 9 7 4 3 4 5 4 3 3 4 5 5 6 7 8 9 11 12 13 13 14 15 16 18 20 22 23 25 27 29 30 31 32 33 33 34 35 36 36 37 38 39 41
0 4 4 4 5 4 5 5 5 6 5 3 4 4 2 1 2 2 4 3 4 4 5 5 5 4 6 5 5 7 7 7 9 10 8 8 9 12 17 16 14 13 10 8 6 4 2 3 4 5 5 5 6 6 6 6 6 6 6 7 8 9 10 11 12 13 15 17 20 22 24 26 27 28 29 30 32 33 33 34 35 35 36 38 39 41
1 0 0 2 4 4 5 5 4 5 4 3 5 4 3 3 2 1 2 3 4 4 6 7 6 4 5 2 4 5 5 8 10 9 8 5 9 18 19 16 15 14 12 11 10 8 7 7 8 7 7 7 7 7 7 7 7 7 7 7 7 8 8 9 10 11 13 14 17 20 23 26 27 28 28 28 30 32 33 35 36 36 37 37 38 40
4 2 3 3 6 4 4 4 4 4 3 6 6 3 2 1 2 2 2 3 3 4 9 10 8 5 5 2 6 6 6 9 8 6 6 6 14 18 17 17 16 14 14 13 12 11 8 8 8 7 7 8 8 8 8 8 8 8 8 8 8 8 8 8 8 9 11 12 14 17 19 22 25 27 28 29 30 30 31 34 36 37 38 39 40 40
8 5 2 4 8 5 3 3 2 2 1 4 4 3 1 1 2 2 3 3 3 6 8 9 11 10 7 3 5 7 8 10 8 6 8 8 13 17 17 17 16 15 15 13 12 11 9 8 8 7 8 9 9 10 10 11 11 10 10 10 10 10 10 10 10 9 10 11 12 14 16 18 20 23 25 28 30 31 32 33 34 35 36 38 39 40
7 9 9 5 6 7 5 2 2 0 1 1 3 4 2 2 2 2 3 4 5 7 5 7 11 9 8 7 8 7 6 8 7 7 13 13 14 18 18 17 16 15 14 13 12 11 9 9 9 9 10 10 11 12 12 13 13 13 13 12 12 13 13 13 12 12 11 11 12 12 13 15 16 19 21 24 27 29 31 33 34 34 35 36 37 39
3 5 8 6 5 10 10 5 5 4 5 6 6 6 5 3 3 3 5 4 4 7 6 8 9 4 5 9 14 15 7 5 7 12 20 21 20 21 19 18 17 15 14 13 12 11 10 10 10 10 11 11 12 12 13 13 14 14 14 14 14 15 15 15 15 15 15 14 14 14 13 14 14 16 18 20 22 25 28 30 33 34 34 35 36 37
6 5 5 8 5 10 14 11 9 6 7 9 6 6 6 4 4 5 4 4 4 4 2 5 6 4 4 4 6 11 6 10 14 18 23 22 23 23 21 19 18 15 14 13 12 11 10 9 9 9 11 12 12 13 13 14 15 15 15 15 15 16 16 17 17 17 17 17 17 16 16 15 14 14 16 17 19 21 24 26 29 32 33 34 35 35
8 8 7 10 4 11 15 13 9 5 4 7 5 5 6 4 4 3 3 3 3 1 2 2 4 4 5 1 4 7 7 11 14 18 21 20 21 22 20 19 17 15 14 12 11 10 9 8 8 9 10 12 13 14 15 15 16 16 16 16 16 16 17 17 18 18 19 19 19 19 19 18 17 16 16 16 17 19 21 23 26 29 31 33 34 34
6 5 6 8 2 8 15 10 8 7 4 4 5 7 5 1 2 2 5 3 3 3 3 4 4 3 4 3 5 9 8 9 11 12 15 18 20 19 17 17 16 14 13 11 10 8 7 7 8 10 11 13 14 16 16 16 16 16 17 18 17 17 17 17 18 18 19 20 21 21 21 21 20 18 17 17 18 18 19 21 23 26 28 30 32 34
6 4 2 8 5 8 10 4 4 8 5 3 5 6 3 2 2 1 3 3 3 5 5 6 8 5 5 4 4 9 9 9 9 9 11 15 18 17 16 16 14 13 11 9 8 6 5 7 9 12 14 15 15 17 17 17 17 17 17 17 18 18 18 18 18 18 19 20 20 21 22 23 23 22 20 19 18 18 19 20 22 24 26 28 30 32
4 3 4 8 9 6 4 1 1 7 8 4 1 2 3 1 2 3 3 3 3 5 4 6 9 7 7 4 4 8 9 10 10 10 10 11 13 15 17 17 14 12 10 7 5 4 6 9 12 14 15 16 16 17 18 18 18 18 18 17 17 18 18 18 19 18 18 19 19 20 21 23 24 24 24 22 20 19 19 20 21 22 24 26 27 29
1 3 3 4 4 4 3 2 4 6 7 2 3 2 2 2 2 4 5 4 4 6 5 5 7 5 5 4 7 12 11 11 11 10 9 9 12 16 18 17 14 11 9 5 3 3 7 11 13 15 16 17 17 18 18 19 19 19 19 18 17 17 17 17 18 18 19 18 18 19 19 21 23 24 25 25 23 22 21 20 21 22 23 24 25 27
1 3 4 1 1 2 3 6 9 9 7 5 2 3 4 3 1 1 2 3 3 4 4 5 6 3 1 2 5 11 11 11 11 10 8 9 14 17 16 16 13 10 8 4 2 2 6 9 12 14 16 17 18 18 18 19 19 19 18 18 17 17 16 17 17 17 18 18 18 18 18 19 20 22 24 26 26 25 23 22 21 21 21 22 24 26
2 3 5 2 1 5 6 6 8 8 6 7 7 7 7 6 4 3 5 5 3 3 4 5 6 4 1 2 3 7 7 7 9 9 8 10 15 16 14 14 12 9 7 3 1 3 5 7 9 12 14 16 16 16 17 18 19 19 18 17 17 16 16 16 16 16 17 17 18 18 18 18 18 20 22 25 26 27 25 23 22 22 21 21 23 24
4 2 5 6 5 8 7 2 2 1 1 3 5 6 8 7 6 7 8 6 4 4 5 4 5 4 1 2 5 6 6 8 12 12 10 12 14 13 12 11 9 8 6 3 1 4 6 7 9 11 12 13 13 14 16 17 18 19 18 17 17 17 16 15 15 15 15 16 17 17 18 18 17 17 19 22 25 27 28 26 24 23 22 21 21 23
7 3 4 7 5 6 6 2 4 4 2 2 5 6 8 9 9 8 5 3 2 4 5 5 6 5 2 1 3 6 9 12 14 15 13 12 13 12 12 11 10 9 6 4 2 5 7 8 11 13 12 11 11 12 15 16 17 17 18 18 18 18 17 17 16 16 15 16 16 16 17 18 17 17 18 20 22 25 28 28 27 24 23 22 21 21
5 4 5 7 5 5 6 3 1 0 2 3 5 4 6 8 8 4 0 1 2 5 6 4 5 3 1 2 4 7 10 10 11 14 15 13 12 13 14 12 12 11 8 5 3 6 9 10 13 14 14 12 11 12 14 16 17 17 17 17 17 18 18 19 19 18 17 17 16 16 16 17 17 17 17 19 20 23 25 28 29 27 25 24 23 21
5 3 5 7 8 9 9 7 6 5 4 3 3 4 5 5 5 3 1 3 5 7 8 6 4 2 2 5 6 7 8 6 8 12 14 14 13 14 16 15 15 15 11 7 6 9 10 13 16 16 15 13 12 13 14 15 16 15 15 16 16 17 18 19 20 20 19 18 18 17 16 16 17 17 17 18 19 21 23 26 29 30 29 26 24 23
4 5 7 7 9 8 5 4 3 2 4 4 6 9 9 7 6 4 4 6 6 6 9 9 6 5 5 3 5 6 7 7 7 9 13 16 17 18 19 19 20 18 13 10 9 10 10 14 19 19 16 13 13 14 15 15 14 13 14 15 15 15 16 17 19 20 20 20 20 19 18 17 17 17 17 18 18 20 21 23 25 29 31 29 26 25
2 7 10 12 12 10 8 8 7 2 2 4 5 7 9 10 10 8 8 9 6 6 9 7 6 8 10 7 5 5 6 6 4 6 10 13 14 13 12 12 16 17 12 9 8 8 9 14 19 19 18 15 13 14 14 14 13 13 13 14 14 15 15 16 17 18 20 20 21 21 21 20 20 19 18 18 18 19 20 21 23 25 29 31 29 27
1 4 6 9 11 10 8 7 6 3 3 3 3 4 6 8 10 10 10 10 8 8 8 7 8 10 9 6 7 8 7 7 7 11 13 14 14 13 10 6 14 16 12 10 9 9 11 15 19 20 19 16 14 15 14 13 13 13 12 12 13 14 15 16 17 17 18 19 20 21 22 22 22 22 21 20 19 19 19 20 21 23 25 29 31 29
2 3 5 6 7 8 8 5 4 5 5 4 4 5 6 7 8 9 9 8 9 9 9 9 13 13 8 7 9 11 11 13 15 17 16 15 16 15 11 9 15 16 14 12 13 16 17 19 21 21 20 18 15 16 14 12 13 13 12 12 13 14 15 16 17 18 18 19 20 21 22 23 23 23 23 22 21 20 19 19 20 21 23 26 29 31
4 4 6 5 5 7 8 7 7 7 7 6 7 7 8 9 9 9 8 7 7 9 10 11 14 12 8 8 13 17 19 19 18 19 19 19 20 19 15 14 15 16 16 15 18 20 20 21 22 23 22 18 16 17 15 12 12 12 12 12 12 13 14 15 16 17 19 20 20 21 22 23 24 24 24 24 23 22 21 20 20 20 21 23 26 29
4 3 2 2 4 5 6 7 8 8 8 10 10 10 10 9 8 7 8 8 8 8 10 11 11 8 6 8 12 15 16 13 13 16 19 20 23 22 20 22 21 18 16 17 20 21 20 20 23 24 21 17 16 17 15 13 13 12 11 11 11 12 14 15 16 17 18 20 21 21 22 23 23 24 24 24 24 24 23 23 21 20 20 21 23 26
3 3 2 3 4 5 6 7 7 6 7 8 8 10 11 10 10 10 10 10 11 9 8 8 8 6 5 7 9 9 9 9 11 14 16 18 21 22 21 22 22 20 19 21 22 22 20 20 22 22 18 15 17 18 15 13 12 11 10 10 10 11 13 15 16 17 18 19 20 21 22 23 23 24 24 24 24 24 24 24 23 22 21 21 21 23
3 3 3 3 2 2 4 5 3 5 6 4 2 3 8 10 11 12 11 11 11 10 9 9 8 8 8 8 9 10 11 14 15 16 17 18 19 20 19 19 20 21 22 22 21 21 18 19 21 20 18 18 20 18 15 13 12 10 10 9 9 10 12 13 15 17 18 19 20 21 22 23 24 24 24 24 24 24 25 25 25 23 22 22 21 22
6 5 4 2 2 2 2 3 4 6 5 1 3 4 7 8 10 11 11 11 11 10 11 11 10 11 11 12 15 17 19 23 26 25 24 23 24 22 21 21 23 24 24 21 20 19 18 19 21 20 20 23 22 18 15 13 11 10 9 9 10 11 11 12 13 15 17 18 20 21 22 22 23 24 25 25 25 24 24 25 26 25 23 22 22 22
8 6 5 4 4 3 3 5 6 5 1 1 1 5 6 5 7 9 10 11 11 9 9 9 10 10 10 13 18 21 24 27 28 28 27 26 26 27 25 25 29 30 27 23 19 18 19 20 21 22 24 24 21 17 15 12 11 10 9 9 11 11 11 12 13 14 15 16 19 20 22 23 24 24 25 25 26 25 25 25 26 26 25 24 23 23
10 8 5 5 5 5 5 7 6 5 4 2 3 5 5 5 6 6 7 7 8 7 7 8 9 10 10 13 18 23 26 23 18 20 25 26 27 29 29 30 33 33 28 22 20 20 21 20 21 24 25 23 20 16 14 11 10 9 8 9 10 11 12 13 14 15 15 16 17 19 21 23 24 25 25 26 27 27 26 26 26 26 26 26 24 24
11 10 7 6 6 5 6 7 5 6 6 4 6 8 9 11 11 7 7 6 4 4 7 6 6 7 8 10 17 20 18 15 9 11 20 25 26 27 30 33 33 31 25 21 22 22 21 20 23 25 25 22 18 15 12 10 9 8 8 9 10 11 12 13 15 15 16 17 18 18 20 22 23 25 25 26 27 28 28 27 27 27 26 27 26 25
12 10 9 7 6 5 6 6 6 6 4 3 5 8 11 14 12 7 6 5 1 6 11 9 7 9 9 11 17 17 11 8 7 9 17 23 25 28 32 35 33 29 24 22 22 22 22 23 25 25 23 20 18 14 12 10 8 7 8 10 11 12 13 14 15 16 17 18 19 19 20 21 23 24 25 26 26 27 28 28 28 28 27 27 26 26
10 8 8 7 7 7 8 7 4 4 2 2 4 5 6 7 6 6 6 3 2 8 13 12 8 10 12 14 15 10 5 4 7 17 25 21 17 20 26 31 30 25 21 20 21 21 22 24 26 25 22 20 17 14 12 9 7 7 8 9 11 12 14 15 16 17 18 19 20 20 21 21 23 24 25 26 26 27 28 29 29 29 28 27 27 26
6 6 7 8 8 9 10 7 4 3 2 1 3 5 4 3 2 5 5 2 6 10 13 13 10 11 14 15 10 6 10 15 20 28 32 25 18 17 16 16 18 17 17 19 22 21 22 25 25 24 22 19 16 14 10 8 7 6 7 9 10 12 14 15 17 18 19 19 20 21 21 21 22 23 24 25 26 26 27 28 29 30 29 29 28 27
4 4 5 7 7 7 8 6 5 4 0 4 3 3 3 3 3 2 2 5 9 12 14 14 11 13 17 17 11 12 22 29 30 32 30 27 25 21 14 12 13 14 15 17 19 21 24 26 24 22 20 18 15 12 9 7 6 5 6 8 10 12 14 15 17 18 19 20 20 21 21 22 22 23 24 25 25 26 26 26 27 29 29 29 29 28
4 3 3 5 5 3 5 5 5 4 3 9 8 3 3 1 1 2 5 7 9 13 16 15 13 15 19 20 19 21 26 30 32 31 29 30 25 12 8 11 13 14 15 17 19 22 24 25 23 20 18 16 13 11 8 6 5 5 6 8 10 12 14 15 16 18 18 19 20 21 21 22 22 23 24 24 25 25 26 26 26 27 28 29 29 29
4 3 3 4 3 3 5 4 1 0 6 11 7 4 7 7 7 8 7 7 10 14 16 14 14 17 20 20 22 23 26 29 29 27 29 29 16 5 12 11 13 15 16 18 20 21 22 22 21 19 16 13 12 9 7 6 5 5 6 7 9 12 14 15 16 17 18 19 20 21 21 22 22 22 23 24 25 25 25 25 26 26 27 28 29 29
1 1 2 2 1 2 1 2 6 8 12 19 19 16 13 12 13 13 10 9 10 13 15 14 15 18 19 19 20 22 24 27 27 26 27 21 5 12 13 12 15 16 16 18 19 19 20 19 18 17 15 12 10 9 7 5 4 4 5 7 9 11 13 15 16 18 19 20 20 21 21 22 22 21 22 23 24 25 25 26 26 26 26 27 28 28
5 6 4 1 4 7 7 8 9 12 15 18 19 18 16 17 18 18 14 12 12 13 14 14 16 18 18 17 19 21 22 23 27 26 18 3 11 14 14 15 16 16 17 18 17 15 16 16 16 15 13 11 9 7 5 4 3 3 4 6 8 10 12 15 16 18 19 20 21 21 21 22 22 22 22 22 23 24 25 26 27 26 26 26 27 27
7 11 6 1 2 2 3 6 9 13 16 17 15 16 17 19 21 20 15 12 13 13 13 15 16 17 16 14 15 18 19 19 24 24 11 10 15 14 16 18 18 17 17 17 15 14 13 13 13 12 11 9 8 5 3 2 1 3 4 6 7 9 11 14 15 17 18 19 20 21 21 22 22 22 22 22 23 24 24 25 26 27 26 25 25 26
7 13 9 3 4 3 4 5 8 13 18 21 20 18 18 19 21 20 17 14 14 14 14 16 17 16 15 14 14 16 15 15 19 21 13 9 12 14 16 17 17 17 16 15 15 14 11 9 8 8 7 6 5 4 2 1 2 3 5 6 8 9 11 13 14 16 17 18 19 20 21 22 22 23 23 23 23 24 24 25 26 26 26 24 23 24
10 10 7 3 2 4 5 6 9 4 9 18 24 21 17 18 21 22 20 18 17 16 17 18 18 16 14 13 13 13 12 11 16 17 13 9 11 13 14 14 15 15 15 15 15 12 9 7 5 4 4 4 3 2 1 1 2 4 6 7 8 10 11 12 14 16 17 18 19 19 20 21 22 23 24 24 24 24 24 25 26 27 26 23 21 22
8 4 5 4 1 3 3 7 10 4 1 9 20 21 17 18 22 23 22 21 19 17 18 20 19 16 12 10 11 11 10 9 13 13 10 7 9 10 12 14 15 14 14 13 11 8 6 5 4 3 3 2 2 1 2 3 4 6 7 8 10 12 13 14 15 16 18 19 20 20 21 22 23 24 25 25 25 25 25 25 25 26 27 25 22 21
9 5 7 5 1 2 5 8 10 8 5 8 17 19 16 18 21 22 21 20 18 16 16 19 20 18 14 10 8 8 7 6 9 10 8 6 7 8 11 14 14 14 12 10 7 5 5 4 4 3 2 2 2 2 4 5 6 8 9 11 12 14 16 17 18 18 19 20 21 22 23 23 24 25 25 26 26 27 27 27 26 25 26 27 25 23
Wind_Direction
195 213 223 218 225 217 206 211 223 248 278 316 354 288 283 281 277 299 72 151 128 109 244 240 257 258 250 256 256 255 261 255 241 239 240 250 259 258 254 248 247 245 241 243 248 252 258 266 270 274 279 284 283 280 278 275 270 266 264 262 262 263 263 262 257 252 249 248 247 247 248 248 247 247 245 245 245 244 243 242 238 234 231 231 237 241
181 228 236 223 234 239 216 213 225 245 271 295 305 280 278 257 267 289 275 182 137 125 253 278 283 272 269 273 282 281 277 267 253 244 237 238 242 247 250 248 247 248 246 247 250 254 261 271 279 281 281 281 277 274 272 270 266 265 265 266 266 264 263 262 260 258 255 253 252 250 250 251 251 251 250 249 248 248 246 244 241 238 235 233 237 243
191 241 244 237 242 268 336 307 281 280 274 282 262 256 266 248 258 287 277 219 126 124 247 277 274 269 272 270 271 267 261 258 255 252 248 244 240 239 244 248 250 252 254 254 254 258 267 274 275 272 267 264 262 259 257 257 254 250 252 257 262 263 262 261 259 257 256 256 255 254 253 253 253 254 255 255 253 252 250 248 245 242 241 240 240 242
213 221 227 236 39 44 330 265 253 263 246 248 246 240 253 242 227 265 266 244 77 98 257 284 278 269 270 266 262 252 249 254 254 252 251 250 250 247 245 250 254 256 258 259 259 261 260 252 244 243 244 243 245 250 253 254 252 249 248 249 250 251 251 252 253 251 251 252 252 252 250 248 247 246 248 252 253 251 249 249 248 245 243 244 244 244
246 264 121 104 71 154 258 250 222 224 235 227 221 223 244 242 217 220 351 25 5 325 263 266 286 273 246 242 249 248 246 251 255 256 254 249 251 254 252 251 252 255 257 258 259 251 228 215 214 219 227 237 244 251 258 262 263 264 262 258 255 254 252 251 251 250 248 248 249 249 247 245 243 241 239 239 242 245 246 246 246 246 245 244 245 246
258 276 130 151 204 206 228 245 217 208 230 238 221 215 222 227 208 134 41 33 3 303 232 195 238 279 235 226 239 242 237 245 247 247 248 246 245 248 250 249 248 248 247 243 233 209 200 207 223 235 246 259 264 268 272 275 278 279 278 275 270 267 265 262 260 257 253 251 251 250 250 248 246 245 243 240 239 240 244 247 247 247 246 244 244 246
257 262 115 177 224 209 217 238 229 213 221 252 249 216 209 205 164 124 96 75 219 281 253 153 195 275 333 265 242 213 208 236 239 235 238 235 231 236 238 229 217 203 190 189 187 192 220 256 275 281 280 281 288 292 291 288 288 289 289 288 285 280 276 272 268 264 259 256 254 253 253 253 252 251 250 249 247 245 245 247 249 249 249 248 246 245
224 204 155 169 200 210 213 224 223 209 209 235 18 53 95 163 160 161 180 203 226 276 307 203 212 259 283 267 234 192 196 232 245 248 245 227 217 208 169 136 134 136 143 153 160 187 246 283 299 317 325 325 341 343 334 322 311 308 304 301 299 296 291 284 277 272 265 259 256 254 253 254 254 255 255 254 253 251 249 249 248 249 250 250 250 249
192 194 182 174 192 210 215 223 221 211 215 202 124 94 72 100 125 178 186 207 246 272 283 244 205 238 269 257 206 178 184 226 241 239 242 236 195 140 117 115 117 117 118 122 121 117 101 72 67 70 69 63 54 44 32 22 9 357 343 329 320 314 308 301 291 282 273 266 260 255 252 251 252 255 257 257 255 253 250 249 249 249 249 250 251 252
338 196 261 216 208 210 223 239 247 231 212 127 107 103 65 65 81 79 172 217 256 249 246 233 198 224 271 232 166 176 185 214 228 226 231 219 134 117 115 116 113 113 111 107 107 102 97 92 86 80 75 72 66 57 50 40 31 25 19 9 354 342 336 323 309 298 287 277 269 263 258 255 253 253 253 255 256 255 253 252 250 248 248 249 249 251
264 322 344 272 233 238 273 276 282 260 163 99 80 90 77 110 181 207 200 203 242 249 243 229 194 208 261 204 176 194 202 206 210 204 197 146 117 115 116 117 115 115 113 109 110 106 103 100 94 89 81 71 63 57 53 45 36 30 27 24 16 7 360 349 334 318 304 292 283 275 268 264 261 259 256 253 252 253 255 255 254 252 250 250 249 250
249 245 252 241 234 243 289 282 284 314 100 98 103 148 165 246 211 204 216 206 214 245 246 211 186 200 237 232 184 203 208 199 198 184 166 133 119 121 118 119 120 117 117 117 117 115 112 108 100 91 80 68 60 55 50 46 40 34 29 27 22 16 10 3 353 342 329 314 301 292 283 276 271 267 263 260 258 256 254 254 255 256 255 253 252 251
230 226 222 221 228 214 209 226 211 297 280 179 151 158 165 228 226 201 212 210 211 244 248 174 175 199 226 234 232 243 222 180 176 154 144 135 127 127 124 125 124 121 122 119 116 115 108 100 90 79 71 61 54 47 44 43 40 36 33 29 25 20 14 9 2 354 348 338 326 314 301 292 284 277 271 267 265 264 261 258 256 255 254 254 253 252
226 239 217 208 227 207 194 182 181 191 200 192 178 176 171 177 214 216 215 221 219 243 241 175 177 213 243 237 234 238 232 124 109 121 136 138 134 132 130 128 124 121 119 113 108 103 95 89 79 69 61 53 47 38 33 32 30 29 28 27 26 23 17 12 7 1 355 350 345 336 323 313 300 290 283 276 273 269 266 265 262 258 256 254 253 252
239 274 191 182 197 190 195 204 194 171 180 197 193 187 189 186 208 215 210 222 227 251 260 179 187 216 228 239 223 215 185 98 100 119 130 132 131 132 130 127 125 121 117 111 105 97 88 80 70 60 49 41 35 28 23 18 16 15 15 17 19 18 17 13 10 6 360 356 352 347 340 331 319 306 296 287 282 276 271 269 266 264 261 257 255 253
229 254 190 183 180 165 188 216 210 166 170 197 180 187 220 221 217 254 258 209 194 262 335 201 211 224 226 242 95 127 119 107 113 120 125 126 129 131 128 127 124 119 117 111 105 96 85 74 56 41 30 22 17 14 13 9 7 4 2 3 5 7 9 9 8 8 3 359 356 353 348 343 334 324 312 300 292 285 278 273 270 268 265 261 258 254
219 252 173 177 227 182 189 208 213 204 193 179 178 192 216 204 118 263 277 248 204 244 248 214 222 239 251 257 129 131 132 132 131 128 131 132 132 130 128 128 123 118 116 107 102 92 72 56 31 17 9 3 1 1 2 1 360 359 355 354 353 353 356 358 1 3 2 360 357 355 353 349 345 336 325 314 304 297 289 281 275 272 269 265 262 258
217 268 208 184 216 212 197 194 232 236 218 157 187 189 148 39 67 128 261 253 228 250 241 222 235 230 228 243 163 150 150 150 151 144 139 135 133 131 127 126 122 116 113 102 96 82 45 21 6 2 358 355 351 349 352 352 351 351 350 347 345 345 346 347 349 353 355 356 355 354 354 352 349 344 335 324 313 305 297 291 284 278 273 270 266 263
201 245 254 204 198 189 168 108 307 260 238 190 170 188 136 192 219 177 212 220 218 245 238 225 238 231 225 234 151 157 165 161 159 148 143 141 135 131 128 128 125 120 116 100 81 51 12 2 358 355 352 350 346 341 343 344 343 343 341 339 338 337 338 338 339 341 345 348 350 351 353 352 351 348 343 335 324 312 303 297 292 286 279 275 271 267
181 195 237 225 199 140 108 192 199 223 231 194 30 319 225 206 197 176 194 199 205 235 243 235 234 223 231 225 170 178 180 164 158 150 146 142 135 134 133 131 129 125 122 111 82 25 360 358 356 352 348 344 340 337 335 335 334 333 332 331 329 328 329 330 332 334 335 338 341 344 348 351 351 350 348 343 335 324 312 303 297 292 286 279 275 271
186 209 215 297 349 140 160 209 203 197 200 183 173 228 212 201 211 214 228 207 191 215 229 240 243 221 269 289 182 177 170 156 154 148 141 134 133 136 136 136 137 135 134 131 93 15 357 356 351 346 341 337 334 331 327 324 324 324 324 323 322 321 321 322 324 326 327 329 331 335 340 345 348 349 349 347 343 334 322 310 301 296 291 283 276 272
191 229 219 207 222 213 210 208 206 202 190 186 193 199 199 201 205 243 247 220 194 205 208 228 252 243 257 355 84 133 142 142 139 129 123 128 132 137 142 144 148 150 158 169 77 12 356 349 341 336 333 331 327 321 316 314 316 318 319 317 316 316 316 316 317 318 319 322 324 326 331 337 342 347 347 346 345 341 334 321 307 300 294 287 281 274
212 242 237 228 215 218 220 166 128 154 128 203 215 198 200 202 195 210 226 217 205 219 219 236 256 247 233 63 87 111 121 120 122 122 124 133 141 149 156 162 173 182 193 221 323 1 354 341 328 325 323 321 317 309 306 308 311 314 314 312 310 311 312 312 311 312 312 314 317 319 322 327 334 340 342 343 342 342 340 332 319 306 297 290 284 279
212 211 239 244 245 232 220 120 60 48 78 236 239 205 202 210 208 214 224 215 198 203 208 233 238 227 215 134 111 120 120 115 121 132 137 145 158 172 180 189 202 210 223 251 300 348 347 333 323 321 317 313 306 300 300 303 309 314 313 312 310 309 310 311 310 311 310 310 312 313 315 318 323 330 334 336 337 338 339 337 331 318 304 294 286 280
221 201 209 231 243 231 218 206 261 276 170 219 237 226 220 219 218 227 356 30 240 216 211 224 230 219 159 84 78 100 113 113 125 143 151 158 171 188 199 208 220 226 229 232 270 322 332 331 325 318 311 307 302 297 299 302 310 316 316 316 315 312 310 310 310 311 310 310 309 309 311 313 315 321 326 329 332 334 335 337 336 330 317 303 291 282
261 235 214 219 224 222 218 217 219 214 205 214 236 253 257 230 211 205 193 224 224 219 224 226 225 248 76 94 98 109 119 129 149 162 171 181 191 199 206 213 219 221 218 217 252 288 309 325 324 314 303 298 296 294 296 303 312 317 317 318 320 317 314 312 311 311 310 310 310 309 310 311 312 317 321 323 327 329 331 333 335 334 329 317 302 289
254 250 242 235 234 238 244 253 250 213 212 222 216 223 237 237 221 205 213 231 225 219 231 226 215 241 245 183 146 140 149 168 175 178 191 201 207 211 219 221 211 205 210 222 245 271 291 313 317 307 291 283 288 291 294 303 311 314 315 318 320 317 316 315 313 314 313 312 312 312 312 312 315 318 319 320 323 325 327 329 332 334 332 327 315 300
247 242 246 245 247 254 267 283 304 336 230 253 241 222 230 234 229 224 226 233 232 235 241 227 204 228 240 233 226 228 226 221 217 222 228 234 236 237 249 235 199 190 205 223 233 251 277 302 305 291 277 274 280 283 290 299 305 308 311 314 317 317 318 320 318 319 318 316 315 315 314 313 314 317 319 320 320 322 324 326 328 331 332 330 324 312
267 260 257 255 259 263 268 282 303 306 246 257 272 249 245 243 239 240 243 239 233 237 246 242 233 238 243 248 251 251 257 262 263 257 256 267 276 280 288 241 189 189 201 212 229 251 270 288 287 272 264 267 270 274 283 291 294 302 307 308 314 318 320 324 326 325 324 323 321 319 317 315 313 313 316 318 319 318 321 324 326 327 329 330 327 320
179 268 262 255 264 268 264 258 263 269 269 274 265 251 254 256 253 254 257 255 250 252 260 260 255 252 251 256 259 261 269 273 276 276 272 272 276 276 268 218 193 198 207 220 248 263 268 272 268 257 253 256 260 265 273 281 285 292 300 305 312 317 321 325 328 329 330 329 328 325 322 320 317 313 311 313 317 319 319 321 324 325 327 329 328 324
179 244 256 247 250 251 245 234 226 231 242 253 256 256 259 260 260 260 260 259 258 259 261 260 260 259 253 255 261 265 268 271 274 277 277 275 275 274 269 253 234 223 222 237 255 258 259 260 255 249 248 248 250 257 263 271 277 282 291 301 309 316 321 324 326 330 333 333 333 330 327 325 322 319 315 311 312 316 319 320 322 324 326 327 328 326
189 225 240 232 252 241 210 210 223 227 234 243 244 245 250 255 258 255 250 247 246 250 254 254 256 259 251 252 258 260 262 265 264 264 266 270 271 270 267 266 264 253 244 253 256 248 248 255 250 245 247 245 244 251 258 265 270 278 287 295 305 313 319 324 328 331 333 332 333 333 332 329 326 324 322 316 310 310 315 319 322 324 325 326 328 326
200 226 215 205 243 240 195 196 220 231 238 243 232 225 229 235 243 246 242 243 243 246 255 253 250 257 256 257 265 266 262 257 254 255 257 262 266 267 264 265 271 269 264 264 257 243 245 254 248 241 243 242 240 248 257 262 267 276 287 295 306 314 317 324 330 333 333 333 334 334 333 332 330 327 326 323 317 310 309 314 321 324 325 325 327 327
261 265 248 221 227 218 175 173 212 234 235 235 127 186 219 223 231 238 239 240 238 234 242 247 249 255 258 259 263 266 264 264 266 268 268 266 267 269 270 275 280 276 268 261 249 239 245 254 245 237 235 234 238 247 254 259 264 272 285 300 312 318 322 328 332 334 335 336 336 335 334 333 332 331 329 327 324 317 310 309 314 321 325 325 326 328
253 255 250 236 222 231 186 173 221 233 228 173 106 170 219 229 236 245 247 244 241 240 243 248 250 248 247 250 254 256 260 264 268 272 273 274 275 275 274 275 276 274 270 260 243 236 245 250 243 235 230 230 236 243 246 250 259 270 287 304 314 323 330 333 335 336 337 337 337 336 336 335 334 333 332 330 328 325 319 312 310 314 320 325 327 328
226 232 236 237 234 241 229 218 233 250 288 19 176 200 212 223 237 254 257 247 242 245 251 257 261 260 257 256 257 259 263 265 265 264 263 265 267 269 270 268 266 266 267 259 245 240 245 246 242 233 226 227 231 234 235 241 253 268 288 305 315 324 330 332 334 337 338 339 338 337 337 337 336 335 334 332 331 329 327 321 314 311 313 319 325 327
213 218 220 228 227 224 230 235 244 266 275 262 214 206 209 221 232 244 253 245 234 240 257 264 268 276 281 276 274 271 265 263 265 261 257 255 255 258 261 261 259 259 259 253 245 247 250 246 236 226 220 222 225 226 227 234 248 267 288 301 310 317 322 326 329 333 336 339 339 338 338 336 336 336 335 334 333 332 331 328 322 316 312 313 318 324
212 214 210 216 217 211 230 245 244 250 251 218 200 207 211 223 235 242 253 252 239 273 302 306 305 323 337 328 321 311 286 265 261 260 256 253 250 250 254 256 255 253 251 248 248 250 250 240 226 216 214 218 222 219 220 231 247 268 285 296 302 309 315 320 324 328 333 337 337 338 338 336 336 337 336 336 335 334 333 331 327 323 318 313 313 318
217 217 216 223 225 209 222 238 233 238 238 184 194 211 212 217 224 234 254 252 275 9 7 17 13 2 7 356 345 339 317 278 270 285 280 262 248 247 250 252 251 247 244 247 249 246 240 231 219 210 210 215 216 214 217 229 245 265 279 290 299 306 313 318 323 327 331 334 336 337 338 337 336 336 336 336 336 335 334 331 329 326 323 318 313 313
223 221 221 226 228 224 230 238 236 236 222 166 186 208 215 220 220 229 242 249 349 3 17 28 15 4 3 354 350 349 334 312 300 309 314 303 275 265 259 250 243 239 236 237 237 234 229 221 211 206 208 211 211 210 214 224 238 259 275 287 298 306 312 317 322 328 330 332 334 336 337 336 335 335 334 334 334 335 334 332 329 328 326 322 317 313
219 215 221 224 225 229 231 235 248 239 214 204 215 211 217 234 228 222 225 273 318 337 14 23 11 10 3 350 352 333 305 309 309 312 322 328 326 318 298 262 241 232 228 227 225 220 214 208 204 205 206 205 206 205 207 219 233 252 271 287 298 305 312 317 321 326 328 329 332 334 335 335 334 334 334 332 332 332 333 331 329 328 328 325 321 316
209 204 218 219 222 233 231 235 252 240 49 11 318 239 211 214 209 225 296 325 324 340 8 13 9 12 359 342 335 319 310 313 318 322 328 331 327 320 303 267 240 222 215 214 210 207 203 199 197 198 197 196 198 198 199 210 225 244 268 285 297 305 311 316 320 323 326 328 331 332 332 333 333 332 332 332 331 330 330 330 329 329 329 327 324 320
197 200 224 214 204 212 220 228 232 219 358 352 325 318 39 57 172 346 330 333 354 1 2 2 4 4 351 337 330 326 320 319 321 324 327 329 326 307 242 229 222 209 202 195 189 192 196 194 189 188 189 188 189 190 192 201 219 245 268 284 296 304 311 316 319 321 325 328 330 330 330 332 332 332 332 332 331 329 329 329 330 330 330 329 327 323
199 203 221 214 200 197 214 226 203 72 11 12 20 82 75 49 33 21 355 349 11 7 357 355 354 349 343 335 328 326 326 325 324 323 326 327 323 196 181 195 197 193 189 183 180 186 192 191 185 180 182 182 183 186 189 199 222 250 271 288 298 304 310 315 318 322 324 326 328 329 329 330 332 333 334 334 332 331 329 329 330 331 331 330 329 327
231 277 247 227 98 94 105 79 86 73 46 48 64 79 78 57 36 30 24 15 11 3 356 350 342 338 339 335 327 324 327 332 333 330 328 326 288 171 174 182 179 174 169 168 173 182 186 183 177 173 174 175 178 183 189 200 225 255 279 296 303 307 311 314 319 322 323 325 327 327 328 329 332 334 336 335 335 334 332 331 331 332 333 332 331 329
27 342 311 196 122 97 63 46 72 77 57 56 65 67 62 50 34 27 25 17 6 357 352 346 339 337 336 334 331 327 330 342 347 342 337 340 153 156 161 162 157 155 157 159 163 173 178 174 170 170 170 169 170 176 183 194 229 276 294 306 310 311 313 316 319 322 323 324 325 326 328 328 330 334 336 336 336 337 336 335 334 334 335 334 331 330
30 1 356 156 165 124 67 38 61 76 62 51 50 45 38 33 27 23 18 9 358 352 349 347 344 341 338 336 333 328 333 353 1 357 11 117 134 136 140 142 141 143 149 150 152 166 177 172 165 164 164 161 159 161 168 186 267 302 310 315 316 315 317 318 319 321 324 326 326 327 328 329 330 332 334 336 337 337 337 337 336 336 337 336 332 330
350 356 7 20 5 39 113 70 63 90 80 54 40 32 22 14 11 11 10 3 357 354 354 352 350 348 346 341 335 331 340 5 10 5 20 86 114 123 131 135 137 140 143 146 156 169 174 163 151 150 149 145 143 148 161 209 306 314 318 320 320 322 323 322 323 325 326 328 330 330 330 331 332 333 334 336 338 338 337 338 337 337 339 340 337 332
309 330 343 336 14 111 118 34 14 80 94 48 30 23 14 1 358 0 3 2 359 359 358 355 352 353 352 346 339 336 344 11 19 12 17 62 101 117 126 131 137 143 144 148 155 161 159 151 146 138 127 120 122 139 157 325 323 323 329 330 329 331 332 331 331 330 329 330 332 333 333 334 335 335 336 336 337 337 338 339 339 337 337 340 340 337
332 338 340 320 183 132 92 12 357 328 228 14 10 6 358 348 349 355 1 1 359 359 357 352 350 354 357 354 348 344 348 14 26 20 21 54 90 114 129 135 139 141 140 141 144 146 148 151 146 132 117 108 102 67 349 343 339 339 340 340 339 339 339 339 338 335 333 333 335 336 336 337 337 337 337 337 337 337 336 337 339 339 338 338 338 339
14 19 356 345 353 42 23 4 351 338 306 326 345 350 345 340 345 353 359 359 355 356 357 352 350 353 357 359 358 353 352 15 32 29 29 53 87 115 134 141 142 140 138 139 143 145 145 144 143 139 123 92 60 10 352 347 347 346 345 345 345 344 342 341 341 338 336 335 336 337 338 338 337 336 337 338 339 338 336 335 335 337 338 338 336 336